Temperature
17 17 17 17 17 16 16 16 16 16 16 16 16 16 16 16 16 16 16 16 16 16 15 15 15 15 15 15 15 15 14 14 14 14 14 14 14 13
16 17 17 16 16 16 16 16 16 16 16 16 16 16 16 16 16 16 16 16 16 16 15 15 15 15 15 15 15 14 14 14 14 14 13 13 13 13
16 16 16 16 16 16 16 16 16 16 16 16 16 16 16 16 16 16 16 16 15 15 15 15 15 15 15 15 14 14 14 14 14 13 13 13 13 13
16 16 16 16 16 16 16 16 15 15 15 16 16 16 16 16 16 15 15 15 15 15 15 15 15 15 15 14 14 14 14 14 13 13 13 13 13 13
16 16 16 16 16 16 15 15 15 15 15 15 15 15 15 15 15 15 15 15 15 15 15 15 15 14 14 14 14 14 13 13 13 13 13 12 12 12
16 15 15 15 15 15 15 15 15 15 15 15 15 15 15 15 15 15 15 15 15 15 14 14 14 14 14 14 14 13 13 13 13 13 12 12 12 12
15 15 15 15 15 15 15 15 15 15 15 15 15 15 15 15 15 15 14 14 14 14 14 14 14 14 14 13 13 13 13 13 12 12 12 12 12 12
15 15 15 15 15 15 15 15 15 15 14 14 14 14 14 14 14 14 14 14 14 14 14 14 14 14 13 13 13 13 12 12 12 12 12 12 12 11
15 15 15 15 15 15 15 15 15 14 14 14 14 14 14 14 14 14 14 14 14 14 13 13 13 13 13 13 13 13 12 12 12 12 12 11 11 11
15 15 15 15 15 14 14 14 14 14 14 14 14 14 14 14 14 14 13 13 13 13 13 13 13 13 13 13 12 12 12 12 12 11 11 11 11 11
15 15 15 15 14 14 14 14 14 14 14 14 13 14 14 13 13 13 13 13 13 13 13 12 13 12 12 12 12 12 12 12 11 11 11 11 11 11
14 14 14 14 14 14 14 14 14 14 14 13 13 13 13 13 13 13 13 13 12 12 12 12 12 12 12 12 12 12 12 11 11 11 11 11 11 10
14 14 14 14 14 14 13 13 13 13 13 13 13 13 13 13 13 13 12 12 12 12 12 12 12 11 11 11 11 11 11 11 11 11 11 11 10 10
13 14 14 14 13 13 13 13 13 12 12 12 12 12 12 12 12 12 12 12 12 12 11 11 11 11 11 11 11 11 11 11 11 11 11 10 10 10
13 13 13 13 13 13 13 13 12 12 12 12 12 12 12 12 12 12 12 11 11 11 11 11 11 11 11 10 10 10 10 10 10 10 10 10 10 10
13 13 13 13 13 13 12 12 12 12 12 12 12 12 11 11 11 11 11 11 11 11 11 10 11 10 10 10 10 10 10 10 10 10 10 10 9 9
12 13 12 12 12 12 12 12 12 12 11 11 11 11 11 11 11 11 10 10 10 10 10 10 10 10 10 10 10 9 9 9 10 9 9 9 9 9
12 12 12 12 12 12 11 11 11 11 11 11 11 11 11 11 10 10 10 10 10 10 10 10 10 10 9 9 9 9 9 9 9 9 9 9 9 9
11 11 11 11 11 11 11 11 11 11 11 10 10 11 10 10 10 10 10 10 10 10 9 9 9 9 9 8 9 9 9 9 9 9 9 9 9 9
11 11 11 10 10 10 10 10 10 10 10 10 10 10 10 10 10 10 10 10 9 9 9 9 9 9 9 9 9 9 9 9 9 9 8 8 8 8
10 10 10 10 10 10 10 10 10 10 9 10 10 9 9 9 9 9 9 9 9 9 9 9 9 9 9 8 8 8 9 9 9 9 8 8 8 8
10 10 10 10 10 10 10 9 9 9 9 9 9 9 9 9 9 9 9 9 9 9 9 9 9 8 8 8 8 8 8 8 8 8 8 8 8 8
9 9 9 9 9 9 9 9 9 9 9 9 9 9 9 9 9 9 9 8 8 8 8 8 8 8 8 8 8 8 8 8 8 8 8 8 8 8
Wind_Speed
5 5 5 4 4 4 4 4 4 4 4 4 3 3 4 6 7 7 8 9 11 11 11 12 11 10 9 9 9 9 8 7 7 7 7 7 7 6
4 4 4 4 4 4 5 4 4 4 4 3 4 3 3 4 6 7 8 9 10 10 10 10 10 9 8 8 7 7 7 7 6 6 6 6 6 6
3 4 4 4 4 4 4 4 4 4 5 4 3 3 3 4 3 4 6 6 6 9 10 9 9 9 8 8 8 8 8 7 7 7 7 6 6 5
4 4 5 4 4 4 4 5 5 5 5 6 3 3 4 4 3 3 3 4 4 6 8 9 9 8 8 8 7 8 8 7 7 7 7 7 6 6
5 5 5 4 5 4 5 5 5 5 5 5 4 3 3 2 2 2 2 2 2 3 5 7 7 7 7 7 6 7 7 7 8 8 8 7 7 6
5 5 5 5 6 6 5 6 5 5 5 4 4 3 3 2 2 2 2 1 2 2 3 4 6 6 7 7 7 7 7 8 7 8 8 8 8 8
4 5 6 6 6 5 5 6 6 5 5 5 4 3 3 2 3 3 3 2 2 2 2 2 3 3 4 7 8 8 9 8 8 8 8 8 8 8
5 5 5 5 6 7 7 7 8 7 7 6 5 5 5 5 4 4 3 2 2 2 2 3 3 4 4 5 7 9 10 10 9 9 9 8 8 8
5 5 4 4 5 5 5 6 7 9 9 7 7 7 6 6 5 5 5 5 4 3 2 3 3 4 5 6 8 10 11 11 11 10 10 9 9 9
5 5 5 5 4 4 4 4 5 5 7 7 7 7 6 5 6 6 6 4 2 2 4 4 3 4 4 5 9 11 11 12 11 11 11 11 10 10
5 5 5 5 6 5 4 5 4 4 4 5 6 6 6 6 6 4 4 4 4 3 4 3 3 3 3 4 7 10 11 11 11 12 11 11 11 10
4 5 6 6 6 5 5 5 6 5 3 3 3 4 4 5 7 6 6 6 4 3 4 4 3 2 2 2 3 5 7 9 11 11 11 11 11 8
5 5 4 6 6 6 6 6 7 5 3 3 3 2 2 3 3 5 5 6 5 5 4 4 3 3 3 2 2 3 4 4 6 7 10 11 11 9
5 4 4 5 6 6 5 6 6 4 3 3 3 3 3 3 3 4 6 6 6 6 6 5 4 4 4 3 3 2 3 4 5 5 6 8 10 11
4 4 4 4 4 4 5 6 4 3 4 4 4 4 4 4 3 3 3 4 4 4 5 6 5 4 5 5 4 4 3 3 5 5 5 5 6 6
2 2 2 2 2 3 3 3 3 4 5 5 5 4 3 3 3 3 3 3 3 3 3 5 6 6 5 5 5 5 4 4 4 5 5 4 5 6
2 1 0 1 1 2 2 2 2 3 4 5 5 4 4 4 4 3 3 3 4 4 3 2 3 3 4 4 5 5 5 4 4 4 5 5 5 6
2 1 2 2 2 3 3 3 3 3 4 4 4 5 5 4 4 3 3 4 4 4 4 3 2 2 1 3 6 6 5 5 4 5 5 5 5 5
2 2 2 2 3 3 3 3 4 4 3 4 4 4 4 4 3 4 4 4 4 4 4 4 4 4 5 6 4 7 7 5 4 4 5 5 5 5
1 2 3 3 3 3 4 4 4 3 3 3 4 4 4 4 4 4 4 5 4 4 4 4 4 5 6 6 4 4 8 7 6 5 4 4 3 3
2 3 3 3 3 4 4 4 4 4 4 4 4 4 4 4 4 4 4 5 4 4 5 5 5 5 4 3 3 4 4 7 8 6 5 4 4 4
3 3 3 4 4 3 4 4 4 4 4 4 4 4 4 4 4 4 4 4 4 5 5 4 3 3 4 5 6 5 4 4 5 6 7 7 5 5
3 3 3 3 3 3 3 4 4 4 4 4 4 4 4 4 3 4 4 4 4 4 3 3 3 3 4 5 5 5 5 5 4 4 4 6 9 9
Wind_Direction
225 223 226 230 221 220 210 201 208 247 262 244 236 233 229 233 236 228 229 229 224 223 223 224 224 225 228 230 232 231 231 228 230 231 231 229 226 227
227 224 230 231 222 218 213 214 215 223 248 243 234 242 233 238 235 227 228 227 226 224 223 222 223 223 224 224 223 222 221 219 221 224 222 223 221 224
233 227 237 232 227 220 214 212 216 215 240 257 240 235 224 237 241 232 230 227 229 226 222 218 216 215 217 216 217 218 220 217 215 216 218 219 220 223
234 230 242 240 232 227 221 223 223 217 223 245 244 223 228 232 233 227 224 221 220 220 215 212 210 209 209 210 213 216 217 218 218 216 216 218 219 220
227 229 237 231 238 234 229 230 228 224 220 228 242 229 229 225 224 225 211 220 219 220 214 207 201 198 199 202 206 213 215 215 215 214 217 220 221 221
234 234 233 228 235 236 233 230 225 223 219 222 236 237 227 212 195 211 237 234 235 229 208 194 193 200 204 206 206 208 210 209 210 211 215 220 223 221
248 247 243 238 235 233 234 228 220 221 218 221 230 230 223 204 211 204 223 234 248 212 203 208 205 212 216 216 214 214 214 213 212 212 213 215 217 216
245 253 254 247 245 240 238 230 218 217 219 219 224 228 228 220 213 208 206 213 244 202 203 238 217 224 222 218 218 214 214 213 212 211 210 207 206 205
240 244 251 255 249 255 252 243 234 228 217 213 223 228 225 215 202 210 214 219 234 201 188 235 221 233 230 222 217 217 219 219 217 216 214 211 209 206
238 238 241 254 254 247 246 250 250 247 234 225 228 232 226 212 205 210 213 220 234 212 193 225 222 231 238 228 222 218 220 221 222 221 219 213 208 205
244 239 236 244 247 231 226 233 244 252 247 229 231 235 231 221 200 191 194 203 234 232 201 209 224 232 239 238 228 218 218 221 221 219 216 214 209 203
253 249 242 245 248 228 220 226 238 245 239 242 248 251 241 228 203 202 205 211 227 233 198 194 213 205 238 236 227 219 216 220 218 215 211 209 202 197
250 255 255 247 246 239 230 229 235 234 232 230 241 252 251 239 223 219 218 216 222 236 202 188 206 205 219 233 239 224 213 214 210 213 211 205 198 193
243 251 254 251 253 251 240 235 230 221 223 224 235 245 246 247 245 235 227 227 229 233 213 196 208 205 214 236 244 228 221 218 208 205 204 201 201 202
244 245 252 250 252 252 246 236 218 213 216 226 237 244 243 244 244 245 238 234 242 244 223 210 209 208 215 228 232 229 224 224 215 212 205 204 202 198
256 252 246 243 242 247 249 236 225 219 220 232 242 249 247 238 236 235 236 232 239 255 247 226 212 205 219 226 222 230 226 214 210 211 209 212 210 206
235 241 282 295 288 284 275 252 234 225 228 235 238 244 243 237 239 238 232 228 229 240 244 242 219 213 223 219 227 229 226 227 218 205 202 215 222 217
172 214 246 256 260 265 266 264 255 248 243 240 239 240 242 240 240 233 225 225 231 237 237 230 210 212 247 259 229 227 229 231 222 204 202 213 229 224
169 229 245 256 261 264 260 257 260 261 256 249 246 243 242 243 241 239 234 233 236 237 237 230 221 219 232 252 246 219 224 222 211 208 213 216 227 228
243 253 255 260 264 265 262 259 262 265 254 247 248 247 244 242 242 241 236 234 237 239 240 238 232 227 230 242 249 243 221 219 215 216 220 220 231 230
263 262 264 265 266 264 264 262 257 253 248 243 246 248 245 240 242 242 240 232 234 239 239 244 245 235 232 224 236 247 244 224 216 217 212 209 221 223
281 276 278 278 275 275 270 263 257 254 250 244 243 244 244 238 234 237 236 237 238 240 248 254 242 219 216 222 234 244 255 247 227 224 218 212 212 217
281 279 279 280 279 280 275 270 264 257 249 246 248 248 245 238 235 235 235 237 240 239 243 249 243 225 220 223 231 239 241 239 230 231 247 242 234 235
Height
1537 1537 1537 1537 1538 1538 1539 1539 1540 1538 1537 1537 1538 1539 1539 1540 1540 1540 1540 1541 1541 1541 1541 1542 1542 1543 1543 1543 1544 1544 1544 1545 1545 1545 1546 1546 1546 1547
1533 1533 1534 1534 1534 1535 1535 1535 1535 1535 1534 1534 1534 1535 1536 1536 1537 1537 1537 1537 1538 1538 1538 1538 1539 1539 1540 1540 1540 1541 1541 1541 1541 1542 1542 1543 1543 1543
1530 1530 1530 1530 1530 1531 1531 1531 1531 1531 1530 1530 1531 1531 1532 1533 1533 1534 1534 1534 1534 1535 1535 1535 1536 1536 1536 1536 1537 1537 1537 1538 1538 1538 1539 1539 1539 1539
1526 1526 1526 1526 1526 1527 1527 1527 1527 1527 1527 1526 1527 1527 1528 1529 1529 1530 1530 1530 1531 1531 1531 1532 1532 1532 1533 1533 1533 1533 1534 1534 1534 1535 1535 1535 1535 1536
1522 1522 1522 1522 1522 1522 1522 1522 1522 1522 1522 1522 1522 1523 1523 1524 1525 1525 1526 1527 1527 1528 1528 1528 1529 1529 1529 1529 1530 1530 1530 1530 1531 1531 1531 1531 1532 1532
1518 1518 1518 1518 1518 1518 1518 1518 1518 1518 1518 1518 1518 1518 1519 1519 1520 1521 1522 1523 1524 1524 1524 1525 1525 1525 1525 1526 1526 1526 1526 1526 1527 1527 1527 1527 1528 1528
1513 1513 1513 1513 1513 1513 1513 1513 1513 1513 1513 1513 1514 1514 1514 1515 1515 1516 1517 1518 1519 1520 1520 1521 1521 1521 1522 1522 1522 1522 1522 1522 1523 1523 1523 1523 1523 1524
1509 1509 1509 1509 1509 1509 1508 1508 1509 1509 1508 1509 1509 1509 1510 1510 1511 1512 1513 1514 1514 1516 1516 1516 1517 1517 1517 1518 1518 1518 1518 1518 1519 1519 1519 1519 1520 1520
1504 1504 1504 1504 1504 1504 1504 1504 1504 1504 1504 1504 1504 1504 1505 1506 1507 1508 1509 1509 1509 1511 1511 1511 1512 1512 1513 1513 1513 1514 1514 1514 1514 1515 1515 1516 1516 1517
1500 1500 1499 1499 1499 1500 1499 1498 1498 1499 1499 1499 1499 1500 1501 1502 1502 1503 1504 1504 1505 1506 1506 1506 1506 1507 1508 1508 1509 1509 1509 1510 1510 1510 1511 1511 1512 1513
1495 1495 1495 1495 1495 1495 1494 1494 1494 1494 1494 1494 1495 1495 1496 1496 1497 1498 1498 1499 1499 1500 1501 1501 1501 1502 1502 1503 1504 1505 1505 1505 1506 1506 1506 1507 1508 1509
1490 1490 1491 1490 1491 1490 1490 1489 1489 1489 1489 1489 1489 1490 1490 1491 1491 1492 1493 1494 1493 1494 1495 1496 1496 1497 1497 1498 1499 1499 1500 1501 1501 1502 1502 1503 1504 1504
1485 1485 1486 1486 1486 1486 1485 1485 1485 1485 1485 1484 1484 1484 1485 1485 1486 1487 1488 1489 1489 1489 1490 1491 1491 1492 1493 1493 1493 1494 1495 1496 1497 1497 1498 1498 1499 1500
1480 1481 1481 1482 1482 1482 1481 1481 1481 1481 1481 1480 1480 1480 1480 1480 1481 1482 1483 1483 1484 1484 1485 1486 1486 1487 1487 1487 1488 1489 1490 1491 1492 1492 1493 1494 1494 1495
1476 1476 1477 1477 1477 1477 1476 1476 1476 1476 1476 1476 1475 1475 1476 1476 1477 1478 1478 1478 1478 1479 1480 1481 1481 1482 1482 1482 1483 1484 1485 1486 1487 1487 1488 1489 1489 1490
1471 1472 1472 1472 1472 1471 1471 1471 1471 1471 1471 1471 1471 1471 1472 1472 1472 1473 1473 1473 1473 1474 1475 1475 1476 1476 1477 1477 1478 1478 1480 1480 1481 1482 1483 1483 1484 1485
1466 1466 1466 1466 1466 1466 1466 1466 1467 1467 1467 1467 1467 1467 1467 1467 1468 1469 1469 1469 1469 1469 1469 1470 1471 1471 1472 1472 1473 1473 1474 1475 1476 1477 1478 1478 1479 1480
1463 1462 1461 1461 1461 1462 1462 1462 1462 1462 1462 1462 1462 1462 1462 1463 1463 1463 1464 1464 1464 1464 1465 1465 1465 1466 1466 1466 1468 1467 1468 1470 1471 1472 1472 1473 1473 1475
1459 1458 1458 1458 1458 1458 1458 1458 1458 1458 1457 1457 1457 1458 1458 1458 1458 1458 1458 1458 1459 1459 1460 1460 1460 1460 1460 1460 1461 1463 1463 1464 1465 1466 1467 1467 1468 1470
1455 1455 1455 1455 1455 1455 1455 1455 1454 1454 1453 1453 1453 1453 1453 1453 1453 1453 1453 1453 1453 1454 1454 1455 1455 1455 1455 1456 1456 1457 1459 1459 1460 1460 1461 1462 1463 1465
1453 1453 1453 1452 1452 1452 1451 1451 1450 1450 1450 1449 1449 1449 1449 1449 1448 1448 1448 1448 1448 1449 1449 1449 1449 1451 1451 1451 1451 1451 1453 1454 1455 1456 1456 1457 1458 1459
1451 1450 1450 1450 1449 1449 1449 1448 1447 1446 1446 1445 1445 1445 1444 1444 1444 1444 1444 1443 1443 1443 1444 1444 1445 1445 1446 1446 1446 1447 1448 1449 1450 1451 1452 1453 1453 1453
1449 1448 1447 1447 1447 1446 1446 1445 1444 1443 1442 1442 1441 1441 1440 1440 1440 1439 1439 1439 1439 1439 1439 1439 1439 1440 1440 1441 1441 1442 1443 1444 1445 1446 1446 1447 1449 1449